Regional Weather Roundup
Issued by NWS Burlington, VT

Home | Current Version | Previous Version | Text Only | Print | Product List | Glossary On
Versions: 1 2 3 4 5 6 7 8 9 10 11 12 13 14 15 16 17 18 19 20 21 22 23 24 25 26 27 28 29 30 31 32 33 34 35 36 37 38 39 40 41 42 43 44 45 46 47 48 49 50
000
ASUS41 KBTV 181810
RWRBTV
VERMONT REGIONAL WEATHER ROUNDUP
NATIONAL WEATHER SERVICE BURLINGTON VT
200 PM EDT THU SEP 18 2014

NOTE: "FAIR" INDICATES FEW OR NO CLOUDS BELOW 12,000 FEET WITH NO
SIGNIFICANT WEATHER AND/OR OBSTRUCTIONS TO VISIBILITY.

* THESE REPORTS ARE NOT UNDER NWS QUALITY CONTROL AND/OR DO NOT
  REPORT WEATHER SUCH AS PRECIPITATION AND FOG.

VTZ001>019-181900-
_____VERMONT_____


CITY           SKY/WX    TMP DP  RH WIND       PRES   REMARKS
BURLINGTON     MOCLDY    54  40  59 N9        30.10R
6HR MIN TEMP:  48; 6HR MAX TEMP:  53; 6HR PCP: TRACE;

MONTPELIER     CLOUDY    54  44  69 NW10      30.08S
6HR MIN TEMP:  47; 6HR MAX TEMP:  55;

MORRISVILLE    CLOUDY    54  42  64 NW9       30.08S
6HR MIN TEMP:  49; 6HR MAX TEMP:  54;

ST. JOHNSBURY*   N/A     52  42  69 MISG      30.04R
6HR MIN TEMP:  45; 6HR MAX TEMP:  54; 6HR PCP:  0.01;

MIDDLEBURY*    CLOUDY    53  45  76 N12       30.07S
6HR MIN TEMP:  51; 6HR MAX TEMP:  54;

RUTLAND*       CLOUDY    55  48  76 N10G16    30.03R
6HR MIN TEMP:  48; 6HR MAX TEMP:  61;

SPRINGFIELD    PTCLDY    64  46  52 W13       29.99F
6HR MIN TEMP:  42; 6HR MAX TEMP:  67;

HIGHGATE*      MOCLDY    53  37  55 W3        30.09S
6HR MIN TEMP:  45; 6HR MAX TEMP:  53;

NEWPORT*       CLOUDY    48  39  69 NW8       30.07S
6HR MIN TEMP:  44; 6HR MAX TEMP:  50;

BENNINGTON     PTCLDY    66  47  50 VRB5      30.00F
6HR MIN TEMP:  43; 6HR MAX TEMP:  67;

SUTTON*          N/A     48 N/A N/A MISG        N/A

_____LAKE CHAMPLAIN_____


CITY           SKY/WX    TMP DP  RH WIND       PRES   REMARKS
COLCHESTER RF*   N/A     50  41  71 N13         N/A
DIAMOND ISL*     N/A     50  43  76 NW18        N/A

$$

NYZ007-026>031-035-052-083-181900-
_____NORTHERN NEW YORK_____


CITY           SKY/WX    TMP DP  RH WIND       PRES   REMARKS
PLATTSBURGH    CLOUDY    51  42  71 N10       30.10S
6HR MIN TEMP:  46; 6HR MAX TEMP:  51; 6HR PCP: TRACE;

SARANAC LAKE   CLOUDY    46  40  79 N6        30.07R
6HR MIN TEMP:  45; 6HR MAX TEMP:  48; 6HR PCP: TRACE;

MASSENA        PTCLDY    54  36  50 NW7       30.13S
6HR MIN TEMP:  46; 6HR MAX TEMP:  55;

OGDENSBURG*    CLEAR     57  37  47 N7        30.12S
POTSDAM*       MOCLDY    54  39  58 NW9       30.11S
WATERTOWN      PTCLDY    57  41  55 NE12      30.11S
6HR MIN TEMP:  48; 6HR MAX TEMP:  58; 6HR PCP: TRACE;

ALBANY         MOCLDY    69  51  52 SW7       30.00F
6HR MIN TEMP:  48; 6HR MAX TEMP:  69;

GLENS FALLS    CLOUDY    58  49  72 NE14      30.03S
6HR MIN TEMP:  49; 6HR MAX TEMP:  62; 6HR PCP: TRACE;


$$
NHZ002-005-011-181900-
_____NEW HAMPSHIRE_____


CITY           SKY/WX    TMP DP  RH WIND       PRES   REMARKS
LEBANON        CLOUDY    63  47  55 N5        29.99S
6HR MIN TEMP:  46; 6HR MAX TEMP:  66;

KEENE          PTCLDY    68  45  42 N12       29.99S
6HR MIN TEMP:  43; 6HR MAX TEMP:  68;

MT WASHINGTON  FOG       34  34 100 NW49G56     N/A  VSB 1/16
6HR MIN TEMP:  32; 6HR MAX TEMP:  37; 6HR PCP:  0.08;

PLYMOUTH       MOCLDY    65  52  62 NW14G20   29.99S
6HR MIN TEMP:  41; 6HR MAX TEMP:  65;

WHITEFIELD     CLOUDY    54  45  71 N7        30.03R
6HR MIN TEMP:  46; 6HR MAX TEMP:  57; 6HR PCP:  0.02;


$$

_____REGIONAL QUEBEC LOCATIONS_____


CITY           SKY/WX    TMP DP  RH WIND       PRES   REMARKS
MONTREAL       MOCLDY    54  34  47 N10       30.10S
SHERBROOKE     MOCLDY    54  36  50 W12       30.05S

_____REGIONAL ONTARIO LOCATIONS_____


CITY           SKY/WX    TMP DP  RH WIND       PRES   REMARKS
OTTAWA         MOCLDY    52  34  50 N12G17    30.14S

______KEY______
VSB  - VISIBILITY IN MILES
WCI  - WIND CHILL INDEX
HX   - HEAT INDEX
$$
NNNN


USA.gov is the U.S. government's official web portal to all federal, state and local government web resources and services.